User: anonymous   Login
Location: Santa Teresa Spring
(37.2333°N, 121.7000°W)
Time: 08:01:40
(UTC-07:00)
Language:

Cosmos 1633 - Orbit

View from above orbital plane
View from above orbital plane
View from above satellite
View from above satellite

Ground track
Ground track

The orbit data is extracted from the following two-line orbital elements,

1 15592U 85020A   16121.14290273  .00002658  00000-0  99533-4 0  9990
2 15592  82.5408  12.6360 0013904 189.4969 170.6009 15.26747790701236
Epoch (UTC): 30 April 2016 03:25:46
Eccentricity: 0.0013904
inclination: 82.5408°
perigee height: 476 km
apogee height: 495 km
right ascension of ascending node: 12.6360°
argument of perigee: 189.4969°
revolutions per day: 15.26747790
mean anomaly at epoch: 170.6009°
orbit number at epoch: 70123

The dashed part of the orbit path shows where the satellite is in the earth's shadow,  

DLR